Погода в Томашгороде

Украина / Ровненская область     51°18′13″N   27°04′07″E
В апреле 2022 года жителям России запретили посещать сайт meteo.paraplan.net по решению Генеральной прокуратуры. Аудитория сайта уменьшилась в 10 раз. Владельцы сайта не видят смысла в поддержке погодного сервера в таких условиях. Сайт будет закрыт в октябре.
темп.,
°C
ветер,
м/с
пор.,
м/с
влажн.,
%
обл.,
%
осадки,
мм/ч
давл.,
гПа
погр.,
м
29 сентября, чт
чт2900:00+8юз24895 0.0 100464
03:00+7ю389143 0.0 1005156
06:00+8ю2891100 0.0 1005174
09:00+11ю3982100 0.0 1005365
12:00+12ююв3879100 0.0 1006376
15:00+17ю3666100 0.0 1005806
18:00+15юз2283100 0.8 100541
21:00+10с3796100 1.0 1007194
30 сентября, пт
пт3000:00+10ссв249690 0.0 1008120
03:00+10сз2397100 0.3 1010140
06:00+10с249896 0.1 1011182
09:00+11с129116 0.1 1013172
12:00+15с1073100 0.0 1014603
15:00+17юв1167100 0.0 1014943
18:00+15юв2280100 0.0 101432
21:00+14юв4109561 2.1 1014365
1 октября, сб
сб100:00+14ююз4129393 0.1 1014463
03:00+12зюз4119512 0.1 1014419
06:00+10зюз2597100 0.0 1015182
09:00+12юз1391100 0.1 1014169
12:00+16юз4882100 0.0 1013732
15:00+16зюз4785100 0.7 1013704
18:00+15зюз2589100 0.1 1013268
21:00+12юз119789 0.1 101315
2 октября, вс
вс200:00+11в119671 0.0 101214
03:00+12всв2397100 0.7 1011115
06:00+11св3698100 5.1 1010268
09:00+11ссз3797100 11.1 1011307
12:00+10сз2697100 3.7 1012301
15:00+13сз4689100 5.7 1011646
18:00+11сз499499 0.8 1012554
21:00+9сз3109798 0.8 1013401
3 октября, пн
пн300:00+10зсз41195100 0.4 1012668
03:00+10зсз5119367 0.7 1012640
06:00+9зсз51293100 0.1 1009584
09:00+8зсз5129095 0.1 1008635
12:00+11зсз61184100 0.1 1007816
15:00+11зсз71284100 0.8 10061109
18:00+9зсз61288100 0.1 10061141
21:00+9з61290100 0.6 1005939